Погода в Емецке

Хотите узнать прогноз погоды в Емецке? Тогда Вам сюда: Погода в Емецке

Поиск расширенной информации на нашем сайте:

Полезная информация:

Новости сайта



02.01.2020
Опубликован Долгосрочный прогноз погоды по городам России и ближнего зарубежья на январь 2020 года.
Карты: Прогноз на январь и февраль 2020 года, Сравнение прогнозируемой аномалии приземной температуры воздуха на январь 2020 года по разным моделям.




Погода в Емецке - сегодня

Время (UTC), дата Ветер
(°,м/с) 
Видим.   Явления Облачность Т
(°С)
Тd
(°С)
f(%) Тe
(°С)
Pmin
(гПа)
dP
(гПа)
Po
(мм)
O2
(г/м3)
Тmin Tmax R s Состояние
почвы
15 29.11.20 160 (Ю) 10 км    10/10 450 м 
[St]
-9.6 -9.9 98 -14  1039.3  -0.5  778  326    -9.6       
18 29.11.20 160 (Ю) 4000 м  снежные зёрна  10/10 300 м 
[St]
-7.9 -7.9 100 -11  1038.6  -0.7  777  323           
21 29.11.20 170 (Ю) 10 км  {снег}  10/10 570 м 
[Sc]
-6.4 -6.5 99 -10  1037.6  -0.9  777  321           
00 30.11.20 150 (ЮВ) 10 км  {снег}  10/10 600 м 
[Sc]
-5.9 -5.9 100 -9  1036.6  -1  776  320           
03 30.11.20 160 (Ю) 10 км    10/10 570 м 
[Sc]
-5.1 -5.1 100 -9  1035.2  -1.4  775  319  -9.6    0.3  равномерный
сухой снег
100% 
06 30.11.20 170 (Ю) 4000 м  дымка  10/10 270 м 
[St]
-4.4 -4.4 100 -8  1034.7  -0.5  774  318           
09 30.11.20 160 (Ю) 8000 м  дымка{снег}  10/3 300 м средняя 
[St|Ac As]
-3.1 -3.1 100 -6  1033.8  -0.7  774  316           
12 30.11.20 150 (ЮВ) 7000 м  дымка{снег}  10/0 средняя 
[Ac As]
-2 -2 100 -5  1031.8  -2  772  314           
15 30.11.20 180 (Ю) 10 км    10/0 средняя 
[Ac As]
-1.2 -1.2 100 -4  1030.2  -1.6  771  312    -1.2  0.0     
18 30.11.20 150 (ЮВ) 10 км    10/10 330 м 
[St]
-0.8 -1.1 98 -3  1028.2  -2  770  311           
21 30.11.20 160 (Ю) 10 км    10/10 600 м 
[Sc]
-0.6 -0.6 100 -4  1026.6  -1.6  768  310           
00 01.12.20 170 (Ю) 10 км    10/10 540 м 
[Sc]
+0.3 -0.2 96 -3  1025.4  -1.1  767  309           
03 01.12.20 170 (Ю) 4000 м  слаб. снег  10/0 средняя 
[Ac As]
-0.1 -0.1 100 -4  1024.6  -0.8  767  309  -1.2    0.3  равномерный
сухой снег
100% 
06 01.12.20 180 (Ю) 10 км  слаб. снег  10/0 средняя 
[Ac As]
-0.1 -0.1 100 -3  1024.6  767  309           
09 01.12.20 180 (Ю) 7000 м  слаб. снег  10/8 480 м средняя 
[Frnb|Ac As]
-0.3 -0.3 100 -3  1024.6  767  309           
12 01.12.20 180 (Ю) 5000 м  слаб. снег  10/0 средняя 
[As trans]
-1.1 -1.1 100 -4  1024  -0.6  766  310           
15 01.12.20 190 (Ю) 4{10}  10 км  {снег}  10/0 средняя 
[Ac As]
-0.9 -1.5 96 -3  1024.3  0.3  767  310    -0.1  0.6     
18 01.12.20 190 (Ю) 4000 м  слаб. снег  10/10 720 м 
[Frnb|Ns]
-1 -1 100 -3  1024.8  0.4  767  310           
21 01.12.20 190 (Ю) 10 км  {снег}  10/10 750 м 
[Sc]
-0.2 -1 94 -3  1025  0.2  767  309           
00 02.12.20 180 (Ю) 2000 м  снег  10/0 средняя 
[Ac As]
-0.6 -0.6 100 -4  1024.1  -0.9  766  310           
03 02.12.20 210 (ЮЗ) 10 км  в посл. час снег  10/8 330 м средняя 
[Frnb|Ac As]
-0.2 -0.2 100 -3  1024.4  0.3  767  309  -1.2    0.6  равномерный
сухой снег
100% 
06 02.12.20 220 (ЮЗ) 10 км  {снег}  10/10 240 м 
[St]
+0.4 +0.4 100 -2  1025.7  1.4  768  309           
09 02.12.20 230 (ЮЗ) 22000 м  в посл. час ливневой снег  10/10 1200 м кучево-дожд. 
[Cb cap]
+0.8 +0.7 99 -1  1027.8  2.1  769  309           
12 02.12.20 210 (ЮЗ) 20000 м  {ливн. осадки}  10/10 1020 м 
[Sc]
+0.6 +0.4 99 1029.2  1.3  770  310           
15 02.12.20 200 (Ю) 10 км    10/10 960 м 
[Sc]
+0.1 +0.1 100 -2  1029.5  0.3  770  310    +0.9  0.3     
Время (UTC), дата Ветер
(°,м/с) 
Видим.   Явления Облачность Т
(°С)
Тd
(°С)
f(%) Тe
(°С)
Pmin
(гПа)
dP
(гПа)
Po
(мм)
O2
(г/м3)
Тmin Tmax R s Состояние
почвы

Для получения пояснительной информации подведите курсор к названию столбца.

ПОГОДА в Емецке - архив

Всё, что Вы хотите узнать о погоде в Емецке - удобно и подробно!

Выберите нужную дату (начиная с 1 января 2019* года) и нажмите кнопку "Найти".
Будут отображены архивные сводки погоды по пункту Емецк, начиная с указанной даты.


Отображать данные в формате CSV (для использования в таблицах Excel)


Внимание! Наш архив погоды предназначен исключительно для личного некоммерческого использования в познавательных целях. Если Вам необходимы официальные справки о состоянии погоды (для производственных, юридических, коммерческих и т.п. целей), обращайтесь в органы Росгидромета.

*Примечание: данная дата относится к архиву по метеостанциям СССР (Россия, СНГ, Балтия).
Архив по метеостанциям Зарубежной Европы и Азии (кроме Китая) хранится 10 дней, по другим регионам земного шара (Китай, Африка, Америка, Австралия, Океания) - 1 день.

Емецк - район местоположения метеостанции


Название, широта, долгота, высота метеостанции:
Емецк 63.5°ш. 41.8°д. 18 м над ур. моря [Российская Федерация]

Дополнительная информация

В oтличие oт бoльшинства пoгoдных сайтoв мы публикуем пoдрoбную метеoинфoрмацию в детальнoм прoфессиoнальнoм фoрмате.

Характеристики температуры и влажнoсти вoздуха измеряются на высoте 2 м в тени вдали oт зданий и деревьев.
Скoрoсть ветра измеряется на высoте 10 м (на урoвне рoста челoвека скoрoсть ветра ниже в 1.5-2 раза). Если метеoстанция нахoдится в гoрoде или в лесу, тo скoрoсть ветра занижена на 2-4 м/с пo сравнению с oткрытым местoм. Скoрoсть ветра над акватoриями крупных рек и oзёр, а также на вершинах хoлмoв на 2-5 м/с выше, чем в oбычных услoвиях.
Атмoсфернoе давление в разных тoчках местнoсти мoжет значительнo oтличаться oт давления на метеoстанции, в зависимoсти oт услoвий рельефа (при пoдъёме на 10 м давление пoнижается примернo на 1 мм рт.ст.).